EJA263 KNEW-KEYW

Flight info

Callsign EJA263
Flight time 1h 22m
Altitude 41000
Route BLVNS Y290 CIGAR MARCI KARTR KRAKN KRAKN1
Aircraft CL60/M-SBDE1E2E3FGHIJ1J4J5J7M3RWXYZ/LB1V1D1

Departure

Time 2026-04-26 10:52
Airport Lakefront Airport (KNEW)

Arrival

Time 2026-04-26 12:15
Airport Key West International Airport (KEYW)
Time Latitude Longitude Altitude Speed Heading
2026-04-26 10:21 30.03589 -90.02406 11 ft 0 kts 83°
2026-04-26 10:45 30.03589 -90.02405 11 ft 0 kts 83°
2026-04-26 10:45 30.03634 -90.02392 11 ft 12 kts 349°
2026-04-26 10:46 30.03668 -90.02451 11 ft 17 kts 273°
2026-04-26 10:46 30.03671 -90.02595 9 ft 16 kts 270°
2026-04-26 10:46 30.03691 -90.02624 8 ft 0 kts 352°
2026-04-26 10:47 30.03721 -90.02630 8 ft 19 kts 347°
2026-04-26 10:47 30.03938 -90.02688 8 ft 33 kts 359°
2026-04-26 10:47 30.04009 -90.02747 8 ft 16 kts 265°
2026-04-26 10:48 30.04025 -90.02864 8 ft 14 kts 346°
2026-04-26 10:48 30.04172 -90.02866 8 ft 34 kts 359°
2026-04-26 10:48 30.04438 -90.02870 8 ft 39 kts 359°
2026-04-26 10:48 30.04715 -90.02874 8 ft 39 kts 359°
2026-04-26 10:49 30.04920 -90.02847 8 ft 24 kts
2026-04-26 10:49 30.05096 -90.02857 8 ft 26 kts 351°
2026-04-26 10:49 30.05215 -90.02879 8 ft 8 kts 351°
2026-04-26 10:49 30.05242 -90.02884 8 ft 0 kts 347°
2026-04-26 10:50 30.05243 -90.02884 8 ft 0 kts 346°
2026-04-26 10:50 30.05267 -90.02894 8 ft 4 kts 319°
2026-04-26 10:50 30.05273 -90.02908 8 ft 3 kts 285°
2026-04-26 10:51 30.05266 -90.02974 8 ft 10 kts 237°
2026-04-26 10:51 30.05199 -90.02991 8 ft 0 kts 178°
2026-04-26 10:52 30.05067 -90.02989 8 ft 69 kts 180°
2026-04-26 10:52 30.04213 -90.02978 32 ft 164 kts 179°
2026-04-26 10:52 30.02979 -90.02904 784 ft 188 kts 170°
2026-04-26 10:52 30.01860 -90.02271 2068 ft 186 kts 136°
2026-04-26 10:53 30.00946 -90.01229 3166 ft 199 kts 136°
2026-04-26 10:53 29.99880 -90.00066 4157 ft 225 kts 134°
2026-04-26 10:53 29.98770 -89.98726 5265 ft 245 kts 132°
2026-04-26 10:54 29.96326 -89.95703 7603 ft 274 kts 132°
2026-04-26 10:54 29.95011 -89.94065 8864 ft 283 kts 132°
2026-04-26 10:54 29.93697 -89.92385 10095 ft 291 kts 131°
2026-04-26 10:54 29.92358 -89.90653 11338 ft 297 kts 131°
2026-04-26 10:55 29.90990 -89.88844 12604 ft 301 kts 132°
2026-04-26 10:55 29.89643 -89.87013 13785 ft 306 kts 131°
2026-04-26 10:55 29.88188 -89.85201 14892 ft 312 kts 135°
2026-04-26 10:55 29.86678 -89.83388 15922 ft 318 kts 136°
2026-04-26 10:56 29.85127 -89.81557 16967 ft 322 kts 135°
2026-04-26 10:56 29.83568 -89.79667 17897 ft 329 kts 135°
2026-04-26 10:56 29.81975 -89.77741 18733 ft 338 kts 134°
2026-04-26 10:56 29.80375 -89.75764 19493 ft 348 kts 134°
2026-04-26 10:57 29.78689 -89.73684 20141 ft 361 kts 134°
2026-04-26 10:57 29.76959 -89.71548 20919 ft 369 kts 134°
2026-04-26 10:57 29.75190 -89.69363 21698 ft 375 kts 134°
2026-04-26 10:57 29.73407 -89.67162 22460 ft 381 kts 134°
2026-04-26 10:58 29.71583 -89.64912 23188 ft 388 kts 134°
2026-04-26 10:58 29.69719 -89.62612 23946 ft 394 kts 134°
2026-04-26 10:58 29.67830 -89.60281 24737 ft 398 kts 134°
2026-04-26 10:58 29.65926 -89.57935 25486 ft 403 kts 134°
2026-04-26 10:59 29.64017 -89.55582 26214 ft 407 kts 134°
2026-04-26 10:59 29.62064 -89.53176 26924 ft 412 kts 134°
2026-04-26 10:59 29.60084 -89.50738 27557 ft 418 kts 134°
2026-04-26 10:59 29.58099 -89.48295 28191 ft 422 kts 133°
2026-04-26 11:00 29.56064 -89.45792 28778 ft 428 kts 133°
2026-04-26 11:00 29.54033 -89.43295 29314 ft 434 kts 133°
2026-04-26 11:00 29.51960 -89.40749 29879 ft 439 kts 133°
2026-04-26 11:00 29.49846 -89.38154 30442 ft 443 kts 133°
2026-04-26 11:01 29.47744 -89.35574 31030 ft 446 kts 133°
2026-04-26 11:01 29.45609 -89.32956 31605 ft 448 kts 134°
2026-04-26 11:01 29.43486 -89.30353 32075 ft 452 kts 134°
2026-04-26 11:01 29.41330 -89.27714 32491 ft 457 kts 134°
2026-04-26 11:02 29.39139 -89.25033 32915 ft 461 kts 134°
2026-04-26 11:02 29.36944 -89.22348 33382 ft 463 kts 134°
2026-04-26 11:02 29.34733 -89.19647 33817 ft 467 kts 134°
2026-04-26 11:02 29.32506 -89.16926 34219 ft 470 kts 134°
2026-04-26 11:03 29.30259 -89.14182 34654 ft 472 kts 134°
2026-04-26 11:03 29.28013 -89.11443 35102 ft 474 kts 134°
2026-04-26 11:03 29.25756 -89.08691 35573 ft 474 kts 134°
2026-04-26 11:03 29.23515 -89.05962 36037 ft 474 kts 134°
2026-04-26 11:04 29.21238 -89.03191 36498 ft 474 kts 135°
2026-04-26 11:04 29.18980 -89.00443 36915 ft 474 kts 134°
2026-04-26 11:04 29.16727 -88.97704 37354 ft 473 kts 135°
2026-04-26 11:04 29.14460 -88.94950 37747 ft 474 kts 135°
2026-04-26 11:05 29.12221 -88.92233 38051 ft 475 kts 134°
2026-04-26 11:05 29.09942 -88.89468 38428 ft 475 kts 135°
2026-04-26 11:05 29.07675 -88.86720 38791 ft 475 kts 134°
2026-04-26 11:05 29.05395 -88.83958 39129 ft 475 kts 134°
2026-04-26 11:06 29.03116 -88.81199 39418 ft 476 kts 135°
2026-04-26 11:06 29.00841 -88.78446 39701 ft 476 kts 135°
2026-04-26 11:06 28.98583 -88.75717 40003 ft 476 kts 134°
2026-04-26 11:06 28.96297 -88.72955 40237 ft 476 kts 134°
2026-04-26 11:07 28.94016 -88.70201 40554 ft 476 kts 134°
2026-04-26 11:07 28.91744 -88.67461 40844 ft 475 kts 134°
2026-04-26 11:07 28.89466 -88.64713 40954 ft 478 kts 134°
2026-04-26 11:07 28.87174 -88.61952 40952 ft 482 kts 134°
2026-04-26 11:08 28.82517 -88.56348 40934 ft 491 kts 134°
2026-04-26 11:08 28.77792 -88.50671 40925 ft 500 kts 134°
2026-04-26 11:09 28.72937 -88.44844 40924 ft 508 kts 134°
2026-04-26 11:09 28.68026 -88.38960 40937 ft 515 kts 134°
2026-04-26 11:10 28.63049 -88.33003 40928 ft 521 kts 135°
2026-04-26 11:10 28.58041 -88.27020 40922 ft 525 kts 135°
2026-04-26 11:11 28.52981 -88.20982 40932 ft 528 kts 135°
2026-04-26 11:11 28.47883 -88.14909 40917 ft 532 kts 135°
2026-04-26 11:12 28.42789 -88.08784 40925 ft 536 kts 132°
2026-04-26 11:12 28.38467 -88.01839 40923 ft 540 kts 117°
2026-04-26 11:13 28.35506 -87.93992 40954 ft 541 kts 105°
2026-04-26 11:13 28.33169 -87.85891 40947 ft 546 kts 105°
2026-04-26 11:14 28.30780 -87.77640 40912 ft 550 kts 105°
2026-04-26 11:14 28.28394 -87.69421 40927 ft 551 kts 105°
2026-04-26 11:15 28.26002 -87.61198 40934 ft 551 kts 105°
2026-04-26 11:15 28.23598 -87.52953 40924 ft 550 kts 105°
2026-04-26 11:16 28.21186 -87.44704 40923 ft 551 kts 105°
2026-04-26 11:16 28.18771 -87.36461 40920 ft 550 kts 105°
2026-04-26 11:17 28.16354 -87.28233 40924 ft 550 kts 105°
2026-04-26 11:17 28.13945 -87.20054 40920 ft 550 kts 105°
2026-04-26 11:18 28.11519 -87.11834 40925 ft 550 kts 105°
2026-04-26 11:18 28.09090 -87.03625 40927 ft 549 kts 106°
2026-04-26 11:19 28.06665 -86.95447 40929 ft 549 kts 105°
2026-04-26 11:19 28.04236 -86.87279 40927 ft 548 kts 105°
2026-04-26 11:20 28.02218 -86.80507 40938 ft 548 kts 106°
2026-04-26 11:20 27.99425 -86.70998 40935 ft 547 kts 105°
2026-04-26 11:21 27.97055 -86.62794 40929 ft 547 kts 105°
2026-04-26 11:21 27.94701 -86.54672 40925 ft 546 kts 105°
2026-04-26 11:22 27.92331 -86.46516 40932 ft 545 kts 105°
2026-04-26 11:22 27.89976 -86.38432 40944 ft 544 kts 105°
2026-04-26 11:23 27.87601 -86.30298 40946 ft 544 kts 105°
2026-04-26 11:23 27.85237 -86.22221 40951 ft 544 kts 106°
2026-04-26 11:24 27.82860 -86.14120 40942 ft 544 kts 106°
2026-04-26 11:24 27.80476 -86.06016 40948 ft 544 kts 106°
2026-04-26 11:25 27.78086 -85.97913 40941 ft 544 kts 106°
2026-04-26 11:25 27.75699 -85.89838 40940 ft 544 kts 106°
2026-04-26 11:26 27.73306 -85.81760 40941 ft 544 kts 106°
2026-04-26 11:26 27.70903 -85.73671 40933 ft 544 kts 105°
2026-04-26 11:27 27.68500 -85.65603 40939 ft 543 kts 105°
2026-04-26 11:27 27.66086 -85.57513 40932 ft 543 kts 105°
2026-04-26 11:28 27.63682 -85.49481 40936 ft 543 kts 105°
2026-04-26 11:28 27.61276 -85.41457 40931 ft 542 kts 105°
2026-04-26 11:29 27.58984 -85.33371 40927 ft 539 kts 100°
2026-04-26 11:29 27.57528 -85.25108 40932 ft 539 kts 98°
2026-04-26 11:30 27.56335 -85.18219 40928 ft 540 kts 98°
2026-04-26 11:30 27.54643 -85.08505 40923 ft 539 kts 97°
2026-04-26 11:31 27.53182 -85.00152 40923 ft 539 kts 98°
2026-04-26 11:31 27.51728 -84.91880 40934 ft 539 kts 98°
2026-04-26 11:32 27.50251 -84.83638 40927 ft 539 kts 100°
2026-04-26 11:32 27.47801 -84.75643 40933 ft 542 kts 113°
2026-04-26 11:33 27.44113 -84.68190 40934 ft 543 kts 119°
2026-04-26 11:33 27.40314 -84.60865 40926 ft 542 kts 119°
2026-04-26 11:34 27.36522 -84.53563 40926 ft 542 kts 119°
2026-04-26 11:34 27.32717 -84.46245 40926 ft 541 kts 119°
2026-04-26 11:35 27.28896 -84.38910 40920 ft 542 kts 119°
2026-04-26 11:35 27.25731 -84.32842 40938 ft 541 kts 120°
2026-04-26 11:36 27.21270 -84.24303 40928 ft 541 kts 120°
2026-04-26 11:36 27.17490 -84.17081 40924 ft 540 kts 120°
2026-04-26 11:37 27.13667 -84.09787 40929 ft 540 kts 120°
2026-04-26 11:37 27.09858 -84.02533 40930 ft 539 kts 120°
2026-04-26 11:38 27.06049 -83.95289 40927 ft 538 kts 120°
2026-04-26 11:38 27.02243 -83.88065 40932 ft 538 kts 120°
2026-04-26 11:39 26.98405 -83.80791 40931 ft 538 kts 120°
2026-04-26 11:39 26.94591 -83.73574 40945 ft 538 kts 120°
2026-04-26 11:40 26.90771 -83.66360 40931 ft 538 kts 120°
2026-04-26 11:40 26.86959 -83.59168 40947 ft 538 kts 120°
2026-04-26 11:42 26.71650 -83.30414 40950 ft 538 kts 120°
2026-04-26 11:43 26.67809 -83.23227 40950 ft 539 kts 120°
2026-04-26 11:43 26.63959 -83.16037 40945 ft 539 kts 120°
2026-04-26 11:44 26.60105 -83.08849 40946 ft 538 kts 120°
2026-04-26 11:44 26.56223 -83.01622 40951 ft 538 kts 120°
2026-04-26 11:45 26.52373 -82.94466 40949 ft 538 kts 120°
2026-04-26 11:45 26.48515 -82.87305 40946 ft 538 kts 120°
2026-04-26 11:46 26.44661 -82.80164 40946 ft 537 kts 120°
2026-04-26 11:46 26.40820 -82.73058 40947 ft 536 kts 120°
2026-04-26 11:47 26.36959 -82.65926 40945 ft 536 kts 120°
2026-04-26 11:47 26.33105 -82.58820 40952 ft 536 kts 120°
2026-04-26 11:48 26.29246 -82.51714 40961 ft 527 kts 120°
2026-04-26 11:48 26.25500 -82.44829 40946 ft 515 kts 120°
2026-04-26 11:49 26.21786 -82.38009 40607 ft 518 kts 120°
2026-04-26 11:49 26.19907 -82.34563 39994 ft 519 kts 120°
2026-04-26 11:49 26.18037 -82.31137 39370 ft 515 kts 120°
2026-04-26 11:50 26.16193 -82.27762 38719 ft 512 kts 120°
2026-04-26 11:50 26.14337 -82.24367 38052 ft 511 kts 120°
2026-04-26 11:50 26.12495 -82.20998 37392 ft 511 kts 120°
2026-04-26 11:50 26.10625 -82.17583 36701 ft 511 kts 120°
2026-04-26 11:51 26.08791 -82.14235 36031 ft 511 kts 120°
2026-04-26 11:51 26.06926 -82.10832 35347 ft 511 kts 120°
2026-04-26 11:51 26.05082 -82.07471 34671 ft 512 kts 120°
2026-04-26 11:51 26.03208 -82.04058 33988 ft 512 kts 120°
2026-04-26 11:52 26.01347 -82.00670 33318 ft 513 kts 120°
2026-04-26 11:52 26.00126 -81.98448 32861 ft 513 kts 120°
2026-04-26 11:52 25.97632 -81.93916 31954 ft 507 kts 120°
2026-04-26 11:52 25.95817 -81.90620 31283 ft 501 kts 120°
2026-04-26 11:53 25.94008 -81.87337 30624 ft 496 kts 120°
2026-04-26 11:53 25.92204 -81.84066 29968 ft 492 kts 120°
2026-04-26 11:53 25.90389 -81.80864 29308 ft 488 kts 124°
2026-04-26 11:54 25.85465 -81.75880 28029 ft 477 kts 149°
2026-04-26 11:54 25.82643 -81.73949 27379 ft 472 kts 149°
2026-04-26 11:54 25.79844 -81.72028 26764 ft 469 kts 149°
2026-04-26 11:54 25.77064 -81.70121 26133 ft 464 kts 149°
2026-04-26 11:55 25.74315 -81.68235 25517 ft 460 kts 149°
2026-04-26 11:55 25.71592 -81.66367 24908 ft 456 kts 149°
2026-04-26 11:55 25.68926 -81.64539 24310 ft 452 kts 149°
2026-04-26 11:55 25.66249 -81.62704 23710 ft 448 kts 149°
2026-04-26 11:56 25.63615 -81.60900 23122 ft 444 kts 149°
2026-04-26 11:56 25.60962 -81.59083 22526 ft 441 kts 149°
2026-04-26 11:56 25.58347 -81.57294 21938 ft 437 kts 149°
2026-04-26 11:56 25.55780 -81.55537 21360 ft 433 kts 149°
2026-04-26 11:57 25.53178 -81.53931 20789 ft 427 kts 158°
2026-04-26 11:57 25.50332 -81.53012 20171 ft 418 kts 174°
2026-04-26 11:57 25.47492 -81.52920 19596 ft 407 kts 188°
2026-04-26 11:57 25.44737 -81.53580 18948 ft 397 kts 203°
2026-04-26 11:58 25.42237 -81.54700 18451 ft 388 kts 207°
2026-04-26 11:58 25.39720 -81.55873 17939 ft 388 kts 206°
2026-04-26 11:58 25.37247 -81.57020 17448 ft 385 kts 206°
2026-04-26 11:58 25.34784 -81.58160 16968 ft 384 kts 207°
2026-04-26 11:59 25.32324 -81.59300 16448 ft 380 kts 207°
2026-04-26 11:59 25.29868 -81.60435 15946 ft 377 kts 207°
2026-04-26 11:59 25.27443 -81.61556 15451 ft 371 kts 207°
2026-04-26 11:59 25.25315 -81.62539 15017 ft 364 kts 207°
2026-04-26 12:00 25.24486 -81.62921 14850 ft 362 kts 207°
2026-04-26 12:00 25.22162 -81.63993 14372 ft 355 kts 207°
2026-04-26 12:00 25.19915 -81.65030 13918 ft 349 kts 207°
2026-04-26 12:00 25.17665 -81.66067 13451 ft 343 kts 207°
2026-04-26 12:01 25.15466 -81.67082 12992 ft 339 kts 207°
2026-04-26 12:01 25.13317 -81.68072 12521 ft 331 kts 207°
2026-04-26 12:01 25.11213 -81.69040 12113 ft 322 kts 207°
2026-04-26 12:01 25.09169 -81.69981 11701 ft 316 kts 207°
2026-04-26 12:02 25.07139 -81.70917 11265 ft 314 kts 207°
2026-04-26 12:02 25.05118 -81.71848 10846 ft 311 kts 206°
2026-04-26 12:02 25.03139 -81.72759 10430 ft 309 kts 206°
2026-04-26 12:02 25.01141 -81.73679 10020 ft 306 kts 206°
2026-04-26 12:03 24.99180 -81.74581 9619 ft 302 kts 206°
2026-04-26 12:03 24.97265 -81.75462 9290 ft 297 kts 206°
2026-04-26 12:03 24.95360 -81.76336 9003 ft 290 kts 206°
2026-04-26 12:03 24.93510 -81.77186 8680 ft 285 kts 206°
2026-04-26 12:04 24.91697 -81.78018 8331 ft 279 kts 205°
2026-04-26 12:04 24.89925 -81.78831 8027 ft 267 kts 205°
2026-04-26 12:04 24.88265 -81.79604 7740 ft 255 kts 208°
2026-04-26 12:04 24.86773 -81.80576 7471 ft 243 kts 216°
2026-04-26 12:05 24.85379 -81.81576 7199 ft 238 kts 215°
2026-04-26 12:05 24.83974 -81.82577 6926 ft 238 kts 215°
2026-04-26 12:05 24.82590 -81.83563 6653 ft 237 kts 214°
2026-04-26 12:05 24.81214 -81.84543 6390 ft 235 kts 214°
2026-04-26 12:06 24.79821 -81.85532 6117 ft 235 kts 214°
2026-04-26 12:06 24.78460 -81.86499 5852 ft 233 kts 214°
2026-04-26 12:06 24.77084 -81.87476 5565 ft 232 kts 214°
2026-04-26 12:06 24.75736 -81.88432 5332 ft 231 kts 213°
2026-04-26 12:07 24.74389 -81.89387 5052 ft 231 kts 213°
2026-04-26 12:07 24.73034 -81.90346 4792 ft 229 kts 213°
2026-04-26 12:07 24.71684 -81.91303 4523 ft 229 kts 213°
2026-04-26 12:07 24.70352 -81.92245 4263 ft 228 kts 213°
2026-04-26 12:08 24.69019 -81.93188 4018 ft 228 kts 212°
2026-04-26 12:08 24.67676 -81.94138 3763 ft 230 kts 212°
2026-04-26 12:08 24.66326 -81.95092 3479 ft 228 kts 212°
2026-04-26 12:08 24.64990 -81.96036 3223 ft 224 kts 212°
2026-04-26 12:09 24.63616 -81.96800 2945 ft 219 kts 192°
2026-04-26 12:09 24.62132 -81.96894 2690 ft 208 kts 178°
2026-04-26 12:09 24.60705 -81.96866 2435 ft 201 kts 178°
2026-04-26 12:09 24.59326 -81.96849 2188 ft 190 kts 178°
2026-04-26 12:10 24.58040 -81.96832 2005 ft 183 kts 178°
2026-04-26 12:10 24.56781 -81.96677 1984 ft 182 kts 159°
2026-04-26 12:10 24.55770 -81.95850 1983 ft 182 kts 125°
2026-04-26 12:10 24.55388 -81.94536 1989 ft 184 kts 94°
2026-04-26 12:11 24.55410 -81.93117 1997 ft 185 kts 89°
2026-04-26 12:11 24.55445 -81.91704 1992 ft 184 kts 90°
2026-04-26 12:11 24.55463 -81.90284 1990 ft 184 kts 90°
2026-04-26 12:11 24.55478 -81.88871 1990 ft 184 kts 90°
2026-04-26 12:12 24.55493 -81.87463 1862 ft 184 kts 90°
2026-04-26 12:12 24.55507 -81.86118 1639 ft 164 kts 91°
2026-04-26 12:12 24.55520 -81.84853 1419 ft 165 kts 91°
2026-04-26 12:12 24.55528 -81.84027 1277 ft 161 kts 91°
2026-04-26 12:13 24.55545 -81.82377 990 ft 161 kts 91°
2026-04-26 12:13 24.55559 -81.81208 821 ft 138 kts 91°
2026-04-26 12:13 24.55574 -81.80199 641 ft 128 kts 90°
2026-04-26 12:13 24.55586 -81.79243 518 ft 124 kts 92°
2026-04-26 12:14 24.55583 -81.78294 344 ft 124 kts 90°
2026-04-26 12:14 24.55600 -81.77355 153 ft 122 kts 91°
2026-04-26 12:14 24.55611 -81.76457 14 ft 108 kts 91°
2026-04-26 12:14 24.55612 -81.75822 8 ft 50 kts 90°
2026-04-26 12:15 24.55613 -81.75623 7 ft 10 kts 101°
2026-04-26 12:15 24.55580 -81.75592 7 ft 4 kts 174°
2026-04-26 12:15 24.55536 -81.75584 7 ft 20 kts 165°
2026-04-26 12:15 24.55475 -81.75520 7 ft 15 kts 92°
2026-04-26 12:16 24.55471 -81.75409 8 ft 9 kts 34°
2026-04-26 12:16 24.55487 -81.75417 7 ft 0 kts 270°